Simultaneous Nadir Overpasses (SNOs) Predictions

Prediction of SNOs between AQUA and NPP Satellite Orbit:

Table of predicted SNOs for the next 14.0 days since TLE Epoch: 1/2/2021
Index Date (AQUA) Time (AQUA) Lat,Lon (AQUA) SZA (AQUA ) Date (NPP) Time (NPP) Lat,Lon (NPP) SZA (NPP ) Distance(km) Time Diff (sec)
1 01/03/2021 14:05:12 75.58,-153.51 120.11 01/03/2021 14:04:23 75.58,-153.52 120.15 0.31 49
2 01/03/2021 14:54:18 -76.63, 17.44 61.06 01/03/2021 14:54:46 -76.63, 17.43 61.08 0.24 28
3 01/06/2021 06:21:30 76.11, -36.02 119.30 01/06/2021 06:21:07 76.12, -35.97 119.31 1.51 23
4 01/06/2021 07:10:38 -77.05, 134.83 61.77 01/06/2021 07:11:32 -77.06, 134.89 61.83 1.55 54
5 01/08/2021 21:48:56 -75.00, -90.98 59.77 01/08/2021 21:47:43 -74.99, -91.07 59.68 2.86 73
6 01/08/2021 22:37:56 76.24, 80.27 118.87 01/08/2021 22:38:00 76.23, 80.20 118.89 1.93 4
7 01/11/2021 14:05:11 -75.63, 26.64 60.79 01/11/2021 14:04:24 -75.63, 26.62 60.74 0.46 47
8 01/11/2021 14:54:12 76.79,-161.97 117.91 01/11/2021 14:54:42 76.80,-161.93 117.87 1.18 30
9 01/14/2021 06:21:26 -76.29, 144.54 61.90 01/14/2021 06:21:05 -76.29, 144.63 61.91 2.69 21



Historial Predications of SNOs between AQUA and NPP
